Kvb Contargo III & X — PD5101 — position and weather

sailwx.info

Track history (hours):
 
Tides and Currents Weather Stations Pressure Air Temp Water Temp Dewpoint Dewpoint Depression Visibility Wind Speed Wind Dir Waves Ship Positions

Kvb Contargo III & X

Last reported at 2014-Jul-24 22:34 UTC. Time now 2014-Jul-24 23:00 UTC.
Position N 51°56' E 004°02'.

Length 182 m; draft 1 m.

Type: Tanker. MMSI: 244670090.

Date/timePositionNaut miles runAvg speedWind from/ knotsBaromVisibWave heightAir tempDewpointWater temp
2014-Jul-24 22:34N 51°56' E 004°02'0 0.0
2014-Jul-24 21:34N 51°56' E 004°02'0 0.0
2014-Jul-24 20:34N 51°56' E 004°02'0 0.0
2014-Jul-24 19:34N 51°56' E 004°02'0 0.0
2014-Jul-24 18:33N 51°56' E 004°02'0 0.0
2014-Jul-24 17:34N 51°56' E 004°02'0 0.0
2014-Jul-24 16:33N 51°56' E 004°02'0 0.0
2014-Jul-24 15:33N 51°56' E 004°02'0 0.0
2014-Jul-24 14:33N 51°56' E 004°02'1 1.0
2014-Jul-24 13:33N 51°57' E 004°02'1 1.1
2014-Jul-24 12:33N 51°58' E 004°03'1 0.6
2014-Jul-24 11:32N 51°58' E 004°04'7 7.5
2014-Jul-24 10:33N 51°53' E 004°14'4 3.6
2014-Jul-24 09:33N 51°53' E 004°20'4 3.6
2014-Jul-24 08:34N 51°53' E 004°25'0 0.1
2014-Jul-24 07:33N 51°53' E 004°26'0 0.0
2014-Jul-24 06:32N 51°53' E 004°26'0 0.0
2014-Jul-24 05:33N 51°53' E 004°26'1 0.9
2014-Jul-24 04:34N 51°53' E 004°24'0 0.0
2014-Jul-24 03:34N 51°53' E 004°24'0 0.0
2014-Jul-24 02:33N 51°53' E 004°24'0 0.0
2014-Jul-24 01:33N 51°53' E 004°24'0 0.0
2014-Jul-24 00:33N 51°53' E 004°24'0 0.0
2014-Jul-23 23:34N 51°53' E 004°24'0 0.0
2014-Jul-23 22:33N 51°53' E 004°24'0 0.0
2014-Jul-23 21:34N 51°53' E 004°24'1 1.4
2014-Jul-23 20:33N 51°54' E 004°26'1 0.5
2014-Jul-23 19:06N 51°53' E 004°26'1 0.4
2014-Jul-23 17:33N 51°54' E 004°26'2 1.7
2014-Jul-23 16:33N 51°53' E 004°24'0 0.4
2014-Jul-23 15:33N 51°53' E 004°25'1 1.1
2014-Jul-23 14:32N 51°54' E 004°24'5 5.3
2014-Jul-23 13:34N 51°54' E 004°16'7 7.4
2014-Jul-23 12:33N 51°58' E 004°05'1 0.9
2014-Jul-23 11:33N 51°57' E 004°04'0 0.0
2014-Jul-23 10:33N 51°57' E 004°04'0 0.0
2014-Jul-23 09:33N 51°57' E 004°04'0 0.0
2014-Jul-23 08:33N 51°57' E 004°04'0 0.0
2014-Jul-23 07:33N 51°57' E 004°04'0 0.0
2014-Jul-23 06:33N 51°57' E 004°04'0 0.1
2014-Jul-23 05:33N 51°57' E 004°05'2 1.8
2014-Jul-23 04:33N 51°56' E 004°02'0 0.0
2014-Jul-23 03:33N 51°56' E 004°02'0 0.0
2014-Jul-23 02:33N 51°56' E 004°02'0 0.0
2014-Jul-23 01:33N 51°56' E 004°02'0 0.0
2014-Jul-23 00:33N 51°56' E 004°02'0 0.0
2014-Jul-22 23:33N 51°56' E 004°02'0 0.0
2014-Jul-22 22:33N 51°56' E 004°02'0 0.0
2014-Jul-22 21:34N 51°56' E 004°02'0 0.0
2014-Jul-22 20:34N 51°56' E 004°02'0 0.0
2014-Jul-22 19:33N 51°56' E 004°02'0 0.0
2014-Jul-22 18:33N 51°56' E 004°02'0 0.0
2014-Jul-22 17:33N 51°56' E 004°02'0 0.0
2014-Jul-22 16:33N 51°56' E 004°02'0 0.0
2014-Jul-22 15:33N 51°56' E 004°02'0 0.0
2014-Jul-22 14:33N 51°56' E 004°02'0 0.0
2014-Jul-22 13:33N 51°56' E 004°02'0 0.0
2014-Jul-22 12:33N 51°56' E 004°02'0 0.0
2014-Jul-22 11:33N 51°56' E 004°02'0 0.0
2014-Jul-22 10:33N 51°56' E 004°02'0 0.0
2014-Jul-22 09:34N 51°56' E 004°02'0 0.0
2014-Jul-22 08:34N 51°56' E 004°02'0 0.0
2014-Jul-22 07:29N 51°56' E 004°02'0 0.0
2014-Jul-22 06:33N 51°56' E 004°02'1 0.6
2014-Jul-22 05:33N 51°56' E 004°02'0 0.0
2014-Jul-22 04:33N 51°56' E 004°02'0 0.0
2014-Jul-22 03:33N 51°56' E 004°02'0 0.0
2014-Jul-22 02:33N 51°56' E 004°02'0 0.0
2014-Jul-22 01:34N 51°56' E 004°02'0 0.0
2014-Jul-22 00:32N 51°56' E 004°02'0 0.0
2014-Jul-21 23:33N 51°56' E 004°02'0 0.0
2014-Jul-21 22:33N 51°56' E 004°02'0 0.0
2014-Jul-21 21:33N 51°56' E 004°02'5 5.4
2014-Jul-21 20:33N 51°55' E 004°11'2 6.6
2014-Jul-21 20:18N 51°54' E 004°13'1 1.8
2014-Jul-21 19:33N 51°53' E 004°14'0 0.0
2014-Jul-21 18:33N 51°53' E 004°14'0 0.0
2014-Jul-21 17:34N 51°53' E 004°14'0 0.1
2014-Jul-21 16:33N 51°53' E 004°14'4 4.4
2014-Jul-21 15:33N 51°56' E 004°09'0 0.0
2014-Jul-21 14:33N 51°56' E 004°09'0 0.0
2014-Jul-21 13:33N 51°56' E 004°09'4 3.9
2014-Jul-21 12:33N 51°56' E 004°03'0 0.2
2014-Jul-21 11:32N 51°56' E 004°02'0 0.0
2014-Jul-21 10:34N 51°56' E 004°02'1 0.8
2014-Jul-21 09:33N 51°57' E 004°02'1 1.2
2014-Jul-21 08:33N 51°58' E 004°03'0 0.0
2014-Jul-21 07:33N 51°58' E 004°03'1 1.2
2014-Jul-21 06:33N 51°58' E 004°02'5 5.3
2014-Jul-21 05:33N 51°56' E 004°09'9 9.0
2014-Jul-21 04:32N 51°51' E 004°22'9 9.5
2014-Jul-21 03:34N 51°48' E 004°36'9 9.1
2014-Jul-21 02:33N 51°49' E 004°51'10 9.6
2014-Jul-21 01:33N 51°49' E 005°06'10 9.6
2014-Jul-21 00:33N 51°48' E 005°22'10 9.5
2014-Jul-20 23:33N 51°54' E 005°34'1010.1
2014-Jul-20 22:32N 51°52' E 005°50'52 7.2
2014-Jul-20 15:23N 51°13' E 006°46'20 7.0
2014-Jul-20 12:29N 50°55' E 006°58'107 7.6
2014-Jul-19 22:30N 49°26' E 008°30'9 9.1
2014-Jul-19 21:33N 49°17' E 008°29'1010.3
2014-Jul-19 20:33N 49°08' E 008°22'1111.3
2014-Jul-19 19:33N 48°58' E 008°14'16 5.2
2014-Jul-19 16:33N 48°46' E 007°60'69 2.7
2014-Jul-18 15:15N 47°39' E 007°32'2 2.5
2014-Jul-18 14:33N 47°38' E 007°33'2 2.0
2014-Jul-18 13:33N 47°36' E 007°35'0 0.0
2014-Jul-18 12:33N 47°36' E 007°35'0 0.0
2014-Jul-18 11:33N 47°36' E 007°36'0 0.1
2014-Jul-18 10:33N 47°36' E 007°36'1 1.1
2014-Jul-18 09:33N 47°35' E 007°36'0 0.0
2014-Jul-18 08:33N 47°35' E 007°36'0 0.0
2014-Jul-18 07:33N 47°35' E 007°36'0 0.0
2014-Jul-18 06:33N 47°35' E 007°36'0 0.0
2014-Jul-18 05:33N 47°35' E 007°36'0 0.0
2014-Jul-18 04:33N 47°35' E 007°36'0 0.0
2014-Jul-18 03:33N 47°35' E 007°36'0 0.0
2014-Jul-18 02:33N 47°35' E 007°36'0 0.0
2014-Jul-18 01:33N 47°35' E 007°36'0 0.0
2014-Jul-18 00:33N 47°35' E 007°36'0 0.0
2014-Jul-17 23:33N 47°35' E 007°36'0 0.1
2014-Jul-17 22:33N 47°35' E 007°36'0 0.0
2014-Jul-17 21:33N 47°35' E 007°36'0 0.0
2014-Jul-17 20:33N 47°35' E 007°36'0 0.0
2014-Jul-17 19:33N 47°35' E 007°36'0 0.0
2014-Jul-17 18:33N 47°35' E 007°36'0 0.0
2014-Jul-17 17:33N 47°35' E 007°36'0 0.0
2014-Jul-17 16:33N 47°35' E 007°36'0 0.2
2014-Jul-17 15:33N 47°35' E 007°36'0 0.0
2014-Jul-17 14:33N 47°35' E 007°36'0 0.0
2014-Jul-17 13:33N 47°35' E 007°36'0 0.0
2014-Jul-17 12:33N 47°35' E 007°36'0 0.0
2014-Jul-17 11:33N 47°35' E 007°36'0 0.0
2014-Jul-17 10:33N 47°35' E 007°36'0 0.0
2014-Jul-17 09:33N 47°35' E 007°36'0 0.0
2014-Jul-17 08:33N 47°35' E 007°36'0 0.0
2014-Jul-17 07:33N 47°35' E 007°36'0 0.0
2014-Jul-17 06:33N 47°35' E 007°36'0 0.0
2014-Jul-17 05:33N 47°35' E 007°36'0 0.0
2014-Jul-17 04:33N 47°35' E 007°36'0 0.0
2014-Jul-17 03:33N 47°35' E 007°36'0 0.0
2014-Jul-17 02:33N 47°35' E 007°36'0 0.0
2014-Jul-17 01:33N 47°35' E 007°36'0 0.0
2014-Jul-17 00:33N 47°35' E 007°36'0 0.0
2014-Jul-16 23:33N 47°35' E 007°36'0 0.0
2014-Jul-16 22:33N 47°35' E 007°36'0 0.0
2014-Jul-16 21:33N 47°35' E 007°36'0 0.0
2014-Jul-16 20:33N 47°35' E 007°36'0 0.0
2014-Jul-16 19:33N 47°35' E 007°36'0 0.0
2014-Jul-16 18:33N 47°35' E 007°36'0 0.0
2014-Jul-16 17:33N 47°35' E 007°36'0 0.0
2014-Jul-16 16:33N 47°35' E 007°36'0 0.0
2014-Jul-16 15:33N 47°35' E 007°36'0 0.0
2014-Jul-16 14:33N 47°35' E 007°36'0 0.0
2014-Jul-16 13:33N 47°35' E 007°36'0 0.0
2014-Jul-16 12:33N 47°35' E 007°36'0 0.0
2014-Jul-16 11:33N 47°35' E 007°36'0 0.0
2014-Jul-16 10:33N 47°35' E 007°36'0 0.3
2014-Jul-16 09:33N 47°35' E 007°36'0 0.0
2014-Jul-16 08:33N 47°35' E 007°36'0 0.4
2014-Jul-16 07:33N 47°35' E 007°36'1 1.1
2014-Jul-16 06:33N 47°36' E 007°35'0 0.0
2014-Jul-16 05:33N 47°36' E 007°35'1 1.4
2014-Jul-16 04:33N 47°35' E 007°35'0 0.0
2014-Jul-16 03:33N 47°35' E 007°35'0 0.0
2014-Jul-16 02:33N 47°35' E 007°35'0 0.5
2014-Jul-16 01:33N 47°35' E 007°36'0 0.0
2014-Jul-16 00:33N 47°35' E 007°36'0 0.2
2014-Jul-15 23:32N 47°35' E 007°36'3 2.4
2014-Jul-15 22:25N 47°38' E 007°34'  
Track history (hours):
 
Tides and Currents Weather Stations Pressure Air Temp Water Temp Dewpoint Dewpoint Depression Visibility Wind Speed Wind Dir Waves Ship Positions

Kvb Contargo III & X

Last reported at 2014-Jul-24 22:34 UTC. Time now 2014-Jul-24 23:00 UTC.
Position N 51°56' E 004°02'.

Length 182 m; draft 1 m.

Type: Tanker. MMSI: 244670090.

Date/timePositionNaut miles runAvg speedWind from/ knotsBaromVisibWave heightAir tempDewpointWater temp
2014-Jul-24 22:34N 51°56' E 004°02'0 0.0
2014-Jul-24 21:34N 51°56' E 004°02'0 0.0
2014-Jul-24 20:34N 51°56' E 004°02'0 0.0
2014-Jul-24 19:34N 51°56' E 004°02'0 0.0
2014-Jul-24 18:33N 51°56' E 004°02'0 0.0
2014-Jul-24 17:34N 51°56' E 004°02'0 0.0
2014-Jul-24 16:33N 51°56' E 004°02'0 0.0
2014-Jul-24 15:33N 51°56' E 004°02'0 0.0
2014-Jul-24 14:33N 51°56' E 004°02'1 1.0
2014-Jul-24 13:33N 51°57' E 004°02'1 1.1
2014-Jul-24 12:33N 51°58' E 004°03'1 0.6
2014-Jul-24 11:32N 51°58' E 004°04'7 7.5
2014-Jul-24 10:33N 51°53' E 004°14'4 3.6
2014-Jul-24 09:33N 51°53' E 004°20'4 3.6
2014-Jul-24 08:34N 51°53' E 004°25'0 0.1
2014-Jul-24 07:33N 51°53' E 004°26'0 0.0
2014-Jul-24 06:32N 51°53' E 004°26'0 0.0
2014-Jul-24 05:33N 51°53' E 004°26'1 0.9
2014-Jul-24 04:34N 51°53' E 004°24'0 0.0
2014-Jul-24 03:34N 51°53' E 004°24'0 0.0
2014-Jul-24 02:33N 51°53' E 004°24'0 0.0
2014-Jul-24 01:33N 51°53' E 004°24'0 0.0
2014-Jul-24 00:33N 51°53' E 004°24'0 0.0
2014-Jul-23 23:34N 51°53' E 004°24'0 0.0
2014-Jul-23 22:33N 51°53' E 004°24'0 0.0
2014-Jul-23 21:34N 51°53' E 004°24'1 1.4
2014-Jul-23 20:33N 51°54' E 004°26'1 0.5
2014-Jul-23 19:06N 51°53' E 004°26'1 0.4
2014-Jul-23 17:33N 51°54' E 004°26'2 1.7
2014-Jul-23 16:33N 51°53' E 004°24'0 0.4
2014-Jul-23 15:33N 51°53' E 004°25'1 1.1
2014-Jul-23 14:32N 51°54' E 004°24'5 5.3
2014-Jul-23 13:34N 51°54' E 004°16'7 7.4
2014-Jul-23 12:33N 51°58' E 004°05'1 0.9
2014-Jul-23 11:33N 51°57' E 004°04'0 0.0
2014-Jul-23 10:33N 51°57' E 004°04'0 0.0
2014-Jul-23 09:33N 51°57' E 004°04'0 0.0
2014-Jul-23 08:33N 51°57' E 004°04'0 0.0
2014-Jul-23 07:33N 51°57' E 004°04'0 0.0
2014-Jul-23 06:33N 51°57' E 004°04'0 0.1
2014-Jul-23 05:33N 51°57' E 004°05'2 1.8
2014-Jul-23 04:33N 51°56' E 004°02'0 0.0
2014-Jul-23 03:33N 51°56' E 004°02'0 0.0
2014-Jul-23 02:33N 51°56' E 004°02'0 0.0
2014-Jul-23 01:33N 51°56' E 004°02'0 0.0
2014-Jul-23 00:33N 51°56' E 004°02'0 0.0
2014-Jul-22 23:33N 51°56' E 004°02'0 0.0
2014-Jul-22 22:33N 51°56' E 004°02'0 0.0
2014-Jul-22 21:34N 51°56' E 004°02'0 0.0
2014-Jul-22 20:34N 51°56' E 004°02'0 0.0
2014-Jul-22 19:33N 51°56' E 004°02'0 0.0
2014-Jul-22 18:33N 51°56' E 004°02'0 0.0
2014-Jul-22 17:33N 51°56' E 004°02'0 0.0
2014-Jul-22 16:33N 51°56' E 004°02'0 0.0
2014-Jul-22 15:33N 51°56' E 004°02'0 0.0
2014-Jul-22 14:33N 51°56' E 004°02'0 0.0
2014-Jul-22 13:33N 51°56' E 004°02'0 0.0
2014-Jul-22 12:33N 51°56' E 004°02'0 0.0
2014-Jul-22 11:33N 51°56' E 004°02'0 0.0
2014-Jul-22 10:33N 51°56' E 004°02'0 0.0
2014-Jul-22 09:34N 51°56' E 004°02'0 0.0
2014-Jul-22 08:34N 51°56' E 004°02'0 0.0
2014-Jul-22 07:29N 51°56' E 004°02'0 0.0
2014-Jul-22 06:33N 51°56' E 004°02'1 0.6
2014-Jul-22 05:33N 51°56' E 004°02'0 0.0
2014-Jul-22 04:33N 51°56' E 004°02'0 0.0
2014-Jul-22 03:33N 51°56' E 004°02'0 0.0
2014-Jul-22 02:33N 51°56' E 004°02'0 0.0
2014-Jul-22 01:34N 51°56' E 004°02'0 0.0
2014-Jul-22 00:32N 51°56' E 004°02'0 0.0
2014-Jul-21 23:33N 51°56' E 004°02'0 0.0
2014-Jul-21 22:33N 51°56' E 004°02'0 0.0
2014-Jul-21 21:33N 51°56' E 004°02'5 5.4
2014-Jul-21 20:33N 51°55' E 004°11'2 6.6
2014-Jul-21 20:18N 51°54' E 004°13'1 1.8
2014-Jul-21 19:33N 51°53' E 004°14'0 0.0
2014-Jul-21 18:33N 51°53' E 004°14'0 0.0
2014-Jul-21 17:34N 51°53' E 004°14'0 0.1
2014-Jul-21 16:33N 51°53' E 004°14'4 4.4
2014-Jul-21 15:33N 51°56' E 004°09'0 0.0
2014-Jul-21 14:33N 51°56' E 004°09'0 0.0
2014-Jul-21 13:33N 51°56' E 004°09'4 3.9
2014-Jul-21 12:33N 51°56' E 004°03'0 0.2
2014-Jul-21 11:32N 51°56' E 004°02'0 0.0
2014-Jul-21 10:34N 51°56' E 004°02'1 0.8
2014-Jul-21 09:33N 51°57' E 004°02'1 1.2
2014-Jul-21 08:33N 51°58' E 004°03'0 0.0
2014-Jul-21 07:33N 51°58' E 004°03'1 1.2
2014-Jul-21 06:33N 51°58' E 004°02'5 5.3
2014-Jul-21 05:33N 51°56' E 004°09'9 9.0
2014-Jul-21 04:32N 51°51' E 004°22'9 9.5
2014-Jul-21 03:34N 51°48' E 004°36'9 9.1
2014-Jul-21 02:33N 51°49' E 004°51'10 9.6
2014-Jul-21 01:33N 51°49' E 005°06'10 9.6
2014-Jul-21 00:33N 51°48' E 005°22'10 9.5
2014-Jul-20 23:33N 51°54' E 005°34'1010.1
2014-Jul-20 22:32N 51°52' E 005°50'52 7.2
2014-Jul-20 15:23N 51°13' E 006°46'20 7.0
2014-Jul-20 12:29N 50°55' E 006°58'107 7.6
2014-Jul-19 22:30N 49°26' E 008°30'9 9.1
2014-Jul-19 21:33N 49°17' E 008°29'1010.3
2014-Jul-19 20:33N 49°08' E 008°22'1111.3
2014-Jul-19 19:33N 48°58' E 008°14'16 5.2
2014-Jul-19 16:33N 48°46' E 007°60'69 2.7
2014-Jul-18 15:15N 47°39' E 007°32'2 2.5
2014-Jul-18 14:33N 47°38' E 007°33'2 2.0
2014-Jul-18 13:33N 47°36' E 007°35'0 0.0
2014-Jul-18 12:33N 47°36' E 007°35'0 0.0
2014-Jul-18 11:33N 47°36' E 007°36'0 0.1
2014-Jul-18 10:33N 47°36' E 007°36'1 1.1
2014-Jul-18 09:33N 47°35' E 007°36'0 0.0
2014-Jul-18 08:33N 47°35' E 007°36'0 0.0
2014-Jul-18 07:33N 47°35' E 007°36'0 0.0
2014-Jul-18 06:33N 47°35' E 007°36'0 0.0
2014-Jul-18 05:33N 47°35' E 007°36'0 0.0
2014-Jul-18 04:33N 47°35' E 007°36'0 0.0
2014-Jul-18 03:33N 47°35' E 007°36'0 0.0
2014-Jul-18 02:33N 47°35' E 007°36'0 0.0
2014-Jul-18 01:33N 47°35' E 007°36'0 0.0
2014-Jul-18 00:33N 47°35' E 007°36'0 0.0
2014-Jul-17 23:33N 47°35' E 007°36'0 0.1
2014-Jul-17 22:33N 47°35' E 007°36'0 0.0
2014-Jul-17 21:33N 47°35' E 007°36'0 0.0
2014-Jul-17 20:33N 47°35' E 007°36'0 0.0
2014-Jul-17 19:33N 47°35' E 007°36'0 0.0
2014-Jul-17 18:33N 47°35' E 007°36'0 0.0
2014-Jul-17 17:33N 47°35' E 007°36'0 0.0
2014-Jul-17 16:33N 47°35' E 007°36'0 0.2
2014-Jul-17 15:33N 47°35' E 007°36'0 0.0
2014-Jul-17 14:33N 47°35' E 007°36'0 0.0
2014-Jul-17 13:33N 47°35' E 007°36'0 0.0
2014-Jul-17 12:33N 47°35' E 007°36'0 0.0
2014-Jul-17 11:33N 47°35' E 007°36'0 0.0
2014-Jul-17 10:33N 47°35' E 007°36'0 0.0
2014-Jul-17 09:33N 47°35' E 007°36'0 0.0
2014-Jul-17 08:33N 47°35' E 007°36'0 0.0
2014-Jul-17 07:33N 47°35' E 007°36'0 0.0
2014-Jul-17 06:33N 47°35' E 007°36'0 0.0
2014-Jul-17 05:33N 47°35' E 007°36'0 0.0
2014-Jul-17 04:33N 47°35' E 007°36'0 0.0
2014-Jul-17 03:33N 47°35' E 007°36'0 0.0
2014-Jul-17 02:33N 47°35' E 007°36'0 0.0
2014-Jul-17 01:33N 47°35' E 007°36'0 0.0
2014-Jul-17 00:33N 47°35' E 007°36'0 0.0
2014-Jul-16 23:33N 47°35' E 007°36'0 0.0
2014-Jul-16 22:33N 47°35' E 007°36'0 0.0
2014-Jul-16 21:33N 47°35' E 007°36'0 0.0
2014-Jul-16 20:33N 47°35' E 007°36'0 0.0
2014-Jul-16 19:33N 47°35' E 007°36'0 0.0
2014-Jul-16 18:33N 47°35' E 007°36'0 0.0
2014-Jul-16 17:33N 47°35' E 007°36'0 0.0
2014-Jul-16 16:33N 47°35' E 007°36'0 0.0
2014-Jul-16 15:33N 47°35' E 007°36'0 0.0
2014-Jul-16 14:33N 47°35' E 007°36'0 0.0
2014-Jul-16 13:33N 47°35' E 007°36'0 0.0
2014-Jul-16 12:33N 47°35' E 007°36'0 0.0
2014-Jul-16 11:33N 47°35' E 007°36'0 0.0
2014-Jul-16 10:33N 47°35' E 007°36'0 0.3
2014-Jul-16 09:33N 47°35' E 007°36'0 0.0
2014-Jul-16 08:33N 47°35' E 007°36'0 0.4
2014-Jul-16 07:33N 47°35' E 007°36'1 1.1
2014-Jul-16 06:33N 47°36' E 007°35'0 0.0
2014-Jul-16 05:33N 47°36' E 007°35'1 1.4
2014-Jul-16 04:33N 47°35' E 007°35'0 0.0
2014-Jul-16 03:33N 47°35' E 007°35'0 0.0
2014-Jul-16 02:33N 47°35' E 007°35'0 0.5
2014-Jul-16 01:33N 47°35' E 007°36'0 0.0
2014-Jul-16 00:33N 47°35' E 007°36'0 0.2
2014-Jul-15 23:32N 47°35' E 007°36'3 2.4
2014-Jul-15 22:25N 47°38' E 007°34'  

Dump ship's entire track history